Flag for Germany Weather past 2 weeks in Brühl (Rhineland), North Rhine-Westphalia, Germany

Now
96 °F

Passing clouds.


Feels Like: 96 °F
Forecast: 70 / 87 °F
Wind: 6 mph from Southwest

Location: Noervenich

Current Time: Jul 4, 2015 at 3:52:23 PM

Latest Report: Jul 4, 2015 at 3:00 PM


Visibility: 19 mi

Pressure: 30.06 "Hg

Humidity: 30%

Dew point: 60 °F

Location of Brühl (Rhineland)Location

Historic Weather in Brühl (Rhineland) — Graph

°F

Brühl (Rhineland) temperature yesterday

Maximum temperature yesterday: 91 °F (at 6:00 PM)
Minimum temperature yesterday: 67 °F (at 6:00 AM)
Average temperature yesterday: 79 °F

Past Weeks' High & Low Weather Summary

 TemperatureHumidityPressure
High98 °F (Jul 2, 4:00 PM)96% (Jun 23, 12:00 AM)30.25 "Hg (Jun 23, 12:00 AM)
Low49 °F (Jun 23, 12:00 AM)25% (Jun 30, 6:00 PM)29.70 "Hg (Jun 22, 9:00 PM)
Average67 °F67%30.08 "Hg
* Reported Jun 19 2:00 PM — Jul 4 2:00 PM, Brühl (Rhineland), Weather by CustomWeather, © 2015

Note: Actual official high and low records may vary slightly from our data, if they occured in-between our weather recording intervals... More about our weather records

Advertising

Brühl (Rhineland) weather history for previous 24 hours

 ConditionsComfort  
Time TempWeatherWind HumidityBarometerVisibility
2:00 PM
Sat, Jul 4
94 °FScattered clouds.5 mph35%30.05 "Hg16 mi
1:00 PM94 °FPartly sunny.5 mph38%30.06 "Hg16 mi
12:00 PM91 °FOvercast.3 mph43%30.05 "Hg12 mi
10:00 AM85 °FOvercast.1 mph57%30.05 "Hg12 mi
9:00 AM82 °FPartly sunny.2 mph64%30.05 "Hg11 mi
7:00 AM74 °FPartly sunny.1 mph81%30.05 "Hg8 mi
6:00 AM71 °FPartly sunny.1 mph87%30.07 "Hg7 mi
4:00 AM73 °FPassing clouds.1 mph83%30.09 "Hg12 mi
3:00 AM73 °FPassing clouds.No wind84%30.11 "Hg12 mi
2:00 AM73 °FPassing clouds.No wind83%30.12 "Hg12 mi
1:00 AM75 °FPassing clouds.No wind78%30.14 "Hg11 mi
12:00 AM78 °FPassing clouds.1 mph70%30.14 "Hg11 mi
10:00 PM
Fri, Jul 3
83 °FPassing clouds.1 mph62%30.15 "Hg11 mi
9:00 PM86 °FScattered clouds.1 mph52%30.14 "Hg11 mi
8:00 PM90 °FPassing clouds.1 mph45%30.14 "Hg11 mi
7:00 PM91 °FPassing clouds.2 mph42%30.14 "Hg11 mi
6:00 PM91 °FPassing clouds.2 mph44%30.14 "Hg9 mi
4:00 PM90 °FPassing clouds.1 mph48%30.18 "Hg9 mi
3:00 PM87 °FSunny.N/A51%30.19 "Hg9 mi
Weather by CustomWeather, © 2015

See weather overviewHow to use our weather pages